Location: Bun Machan
(52.1403°N, 7.3744°W)
Time: 05:24:14
(UTC+00:00)

X-37B - Visible Passes

Search period start: 22 June 2021 00:00
Search period end: 02 July 2021 00:00
Orbit: 386 x 389 km, 45.0° (Epoch: 10 June)

Date Brightness Start Highest point End Pass type
(mag) Time Alt. Az. Time Alt. Az. Time Alt. Az.
22 Jun 2.7 01:43:03 14° SSE 01:43:03 14° SSE 01:43:42 10° SE visible
22 Jun 2.7 03:16:52 10° SSW 03:17:07 10° SSW 03:17:22 10° SSW visible
23 Jun 2.5 22:07:16 10° S 22:08:56 13° SSE 22:10:09 11° SE visible
23 Jun 3.0 23:42:20 10° SW 23:42:30 11° SW 23:42:30 11° SW visible
24 Jun 1.9 22:44:16 10° SW 22:46:43 20° S 22:47:29 19° SSE visible
25 Jun 2.2 21:46:23 10° SSW 21:48:34 17° SSE 21:50:46 10° ESE visible
25 Jun 2.0 23:22:02 10° WSW 23:24:10 22° SSW 23:24:10 22° SSW visible
26 Jun 1.9 22:23:52 10° SW 22:26:25 22° S 22:28:17 14° SE visible
27 Jun 3.0 00:00:14 10° WSW 00:00:33 12° SW 00:00:33 12° SW visible
27 Jun 2.0 23:01:50 10° WSW 23:04:18 21° S 23:04:33 20° S visible
28 Jun 2.0 22:03:34 10° WSW 22:06:08 22° S 22:08:29 11° SE visible
28 Jun 3.0 23:40:23 10° SW 23:40:45 11° SW 23:40:45 11° SW visible
29 Jun 2.3 22:41:46 10° WSW 22:43:59 17° SSW 22:44:39 16° S visible
30 Jun 2.2 21:43:21 10° WSW 21:45:50 21° S 21:48:17 10° SE visible
01 Jul 2.7 22:21:55 10° SW 22:23:37 14° SSW 22:24:43 12° S visible
